[Iaude] MPEC C91: 2024 BB8 [a=1.41,e=0.22,i=21.4,H=21.3]

mpec at cfa.harvard.edu mpec at cfa.harvard.edu
Thu Feb 8 19:06:56 EST 2024


M.P.E.C. 2024-C91                              Issued 2024 February 9, 00:05 UT

     The Minor Planet Electronic Circulars contain information on unusual
         minor planets, routine data on comets and natural satellites,
         and occasional editorial announcements.  They are published
    on behalf of Division F of the International Astronomical Union by the
          Minor Planet Center, Smithsonian Astrophysical Observatory,
                          Cambridge, MA 02138, U.S.A.
			  
             Prepared using the Tamkin Foundation Computer Network

                              MPC at CFA.HARVARD.EDU
            URL https://www.minorplanetcenter.net/    ISSN 1523-6714

                                    2024 BB8                                    


Observations:
     K24B08B*!C2024 01 18.33178 10 34 04.65 -34 55 01.4          21.1 GXEC091W84
     K24B08B !C2024 01 18.33360 10 34 04.51 -34 55 05.7          21.2 GXEC091W84
     K24B08B !C2024 01 18.33728 10 34 04.19 -34 55 14.5          21.4 GXEC091W84
     K24B08B !C2024 01 18.33941 10 34 04.01 -34 55 19.4          21.5 GXEC091W84
     K24B08B !C2024 01 18.34123 10 34 03.87 -34 55 23.9          21.2 GXEC091W84
     K24B08B !C2024 01 18.34302 10 34 03.71 -34 55 28.1          21.4 GXEC091W84
     K24B08B !C2024 01 18.34482 10 34 03.56 -34 55 32.5          21.2 GXEC091W84
     K24B08B !C2024 01 18.34660 10 34 03.41 -34 55 36.3          21.2 GXEC091W84
     K24B08B !C2024 01 18.34902 10 34 03.21 -34 55 42.4          21.5 GXEC091W84
     K24B08B !C2024 01 18.35081 10 34 03.06 -34 55 46.6          21.6 GXEC091W84
     K24B08B !C2024 01 18.35574 10 34 02.63 -34 55 58.4          21.4 GXEC091W84
     K24B08B !C2024 01 18.35669 10 34 02.56 -34 56 00.7          21.6 GXEC091W84
     K24B08B !C2024 01 18.35765 10 34 02.47 -34 56 03.0          21.6 GXEC091W84
     K24B08B !C2024 01 18.35862 10 34 02.40 -34 56 05.3          21.5 GXEC091W84
     K24B08B !C2024 01 18.36104 10 34 02.18 -34 56 11.2          21.9 GXEC091W84
     K24B08B !C2024 01 18.36292 10 34 02.03 -34 56 15.5          21.9 GXEC091W84
     K24B08B !C2024 01 18.36669 10 34 01.73 -34 56 24.1          21.8 GXEC091W84
     K24B08B !C2024 01 19.33008 10 32 46.55 -35 34 17.9          21.7 GXEC091W84
     K24B08B !C2024 01 19.33748 10 32 45.90 -35 34 35.2          21.9 GXEC091W84
     K24B08B !C2024 01 19.34417 10 32 45.30 -35 34 50.6          21.7 GXEC091W84
     K24B08B !C2024 01 19.35250 10 32 44.57 -35 35 09.9          21.5 GXEC091W84
     K24B08B !C2024 01 19.36217 10 32 43.71 -35 35 32.3          22.3 GXEC091W84
     K24B08B !C2024 01 19.36679 10 32 43.29 -35 35 43.2          22.1 GXEC091W84
     K24B08B !C2024 01 19.36867 10 32 43.12 -35 35 47.6          21.8 GXEC091W84
     K24B08B !C2024 01 20.33528 10 31 23.70 -36 12 48.1          21.9 GXEC091W84
     K24B08B !C2024 01 20.34190 10 31 23.09 -36 13 03.0          21.8 GXEC091W84
     K24B08B !C2024 01 20.34680 10 31 22.64 -36 13 13.9          22.0 GXEC091W84
     K24B08B !C2024 01 20.35594 10 31 21.80 -36 13 34.6          22.3 GXEC091W84
     K24B08B !C2024 01 20.35689 10 31 21.71 -36 13 36.7          22.4 GXEC091W84
     K24B08B !C2024 01 20.35884 10 31 21.53 -36 13 41.0          22.3 GXEC091W84
     K24B08B !C2024 01 20.35982 10 31 21.43 -36 13 43.2          22.2 GXEC091W84

Observer details:
W84 Cerro Tololo-DECam.  Observer .  Measurer F. Valdes.  4.0-m CTIO reflector
    + DECam.

Orbital elements:
2024 BB8                                                 Earth MOID = 0.1373 AU
Epoch 2023 Sept. 13.0 TT = JDT 2460200.5                Bell                    
M 332.51262              (2000.0)            P               Q                  
n   0.58912508     Peri.  152.47090     +0.39397335     -0.84357695             
a   1.4092814      Node   272.32308     +0.76178857     +0.52183588             
e   0.2174176      Incl.   21.42082     +0.51425984     -0.12674871             
P   1.67           H   21.37          G   0.15           U   9                  
Residuals in seconds of arc
240118 W84  0.1-  0.1-    240118 W84  0.0   0.1-    240119 W84  0.1-  0.2-
240118 W84  0.1+  0.0     240118 W84  0.1-  0.1-    240119 W84  0.2-  0.3-
240118 W84  0.0   0.0     240118 W84  0.1+  0.1-    240120 W84  0.1-  0.0
240118 W84  0.0   0.1+    240118 W84  0.2-  0.2-    240120 W84  0.0   0.0
240118 W84  0.1+  0.0     240118 W84  0.0   0.1-    240120 W84  0.0   0.1+
240118 W84  0.0   0.0     240118 W84  0.2+  0.2+    240120 W84  0.1+  0.1-
240118 W84  0.0   0.1-    240119 W84  0.1+  0.2+    240120 W84  0.1+  0.0
240118 W84  0.0   0.3+    240119 W84  0.1+  0.0     240120 W84  0.1+  0.0
240118 W84  0.1+  0.0     240119 W84  0.0   0.1+    240120 W84  0.1-  0.0
240118 W84  0.1+  0.1+    240119 W84  0.1+  0.1+
240118 W84  0.1-  0.0     240119 W84  0.0   0.0

Ephemeris:
2024 BB8                 a,e,i = 1.41, 0.22, 21                  q = 1.1029
Date    TT    R. A. (2000) Decl.     Delta      r    Elong.  Phase     V
2024 01 10    10 42 14.5 -28 50 15   0.4661  1.2227   109.8    49.2    22.0
...
2024 01 25    10 24 07.2 -38 56 55   0.4798  1.2678   115.6    44.4    22.0
...
2024 02 02    10 08 37.0 -42 38 10   0.4927  1.2929   118.1    42.2    22.0
...
2024 02 08    09 55 11.9 -44 29 56   0.5048  1.3121   119.7    40.7    22.1
2024 02 09    09 52 52.9 -44 43 54   0.5070  1.3153   120.0    40.5    22.1
2024 02 10    09 50 33.3 -44 56 32   0.5093  1.3185   120.2    40.3    22.1
...
2024 02 16    09 36 41.4 -45 45 04   0.5240  1.3378   121.4    39.1    22.2
...
2024 02 24    09 19 49.4 -45 42 44   0.5468  1.3636   122.5    37.7    22.3
...
2024 03 10    08 58 48.8 -43 00 08   0.5993  1.4114   122.9    36.2    22.5

M. P. C. Staff               (C) Copyright 2024 MPC           M.P.E.C. 2024-C91





More information about the Iaude mailing list